Tacoma, WA
on Wednesday, December 19, 2012

Wednesday
Previous Day Next Day
Daily Summary
 ActualAverage (KSEA)Record (KSEA)
Temperature
Mean Temperature °F 40°F  
Max Temperature 46°F 45°F 56°F (1969)
Min Temperature 33°F 35°F 17°F (1949)
Degree Days
Heating Degree Days 26 25  
Month to date heating degree days 460  
Since 1 July heating degree days 1643  
Cooling Degree Days 0 0  
Month to date cooling degree days 0  
Year to date cooling degree days 189  
Moisture
Dew Point 36°F   
Average Humidity 87    
Maximum Humidity 100    
Minimum Humidity 66    
Precipitation
Precipitation 0.76 in 0.17 in 1.19 in (1953)
Month to date precipitation 3.36  
Year to date precipitation 35.50  
Snow
Snow 0.00 in in 3.30 in (1964)
Month to date snowfall  
Since 1 July snowfall  
Snow Depth in   
Wind
Wind Speed 10 mph   
Max Wind Speed 22 mph   
Max Gust Speed 34 mph   
Visibility 9 miles   
Events Rain , Snow   

Key: T is trace of precipitation, MM is missing value
Source: NWS Daily Summary
Time(PST)TemperatureDew PointHumidity Pressure Visibility Wind DirectionWind SpeedGust SpeedPrecipitationEvents Conditions
12:58 AM 33.8°F 30.6°F 88% 29.96 in 10.0 miles South 8.1 mph - N/A   Scattered Clouds
1:53 AM 33.8°F 32.0°F 93% 29.92 in 10.0 miles South 5.8 mph - N/A   Mostly Cloudy
1:58 AM 34.5°F 30.9°F 87% 29.94 in 10.0 miles South 4.6 mph - N/A   Mostly Cloudy
2:04 AM 33.8°F 32.0°F 93% 29.91 in 10.0 miles SSE 4.6 mph - N/A Rain Light Rain
2:29 AM 35.6°F 30.2°F 81% 29.90 in 10.0 miles SE 8.1 mph - N/A   Overcast
2:36 AM 35.6°F 30.2°F 81% 29.90 in 10.0 miles SE 6.9 mph - N/A Rain Light Rain
2:55 AM 35.6°F 32.0°F 87% 29.88 in 10.0 miles SE 10.4 mph - N/A Snow Light Snow
2:58 AM 36.0°F 30.6°F 81% 29.89 in 10.0 miles SE 10.4 mph - 0.00 in Snow Light Snow
3:06 AM 35.6°F 32.0°F 87% 29.86 in 10.0 miles SE 12.7 mph 19.6 mph N/A Snow Light Snow
3:17 AM 35.6°F 32.0°F 87% 29.86 in 10.0 miles SE 15.0 mph 20.7 mph N/A Snow Light Snow
3:22 AM 35.6°F 32.0°F 87% 29.85 in 10.0 miles SE 10.4 mph 20.7 mph N/A Snow Light Snow
3:28 AM 35.6°F 32.0°F 87% 29.85 in 10.0 miles SE 13.8 mph 19.6 mph N/A Rain Light Rain
3:35 AM 35.6°F 32.0°F 87% 29.84 in 10.0 miles SSE 11.5 mph 19.6 mph N/A Rain Light Rain
3:43 AM 35.6°F 32.0°F 87% 29.84 in 10.0 miles SSE 12.7 mph - N/A Rain Light Rain
3:47 AM 35.6°F 32.0°F 87% 29.84 in 10.0 miles SSE 12.7 mph - N/A Rain Light Rain
3:58 AM 35.8°F 31.6°F 85% 29.84 in 10.0 miles SSE 11.5 mph - 0.01 in Rain Light Rain
4:21 AM 35.6°F 32.0°F 87% 29.81 in 10.0 miles SSE 10.4 mph - N/A   Mostly Cloudy
4:56 AM 35.6°F 32.0°F 87% 29.79 in 10.0 miles South 13.8 mph - N/A   Overcast
4:58 AM 35.6°F 32.0°F 87% 29.81 in 10.0 miles South 11.5 mph - 0.00 in   Mostly Cloudy
5:58 AM 36.9°F 32.5°F 84% 29.79 in 10.0 miles South 9.2 mph - N/A   Mostly Cloudy
6:58 AM 38.1°F 33.1°F 82% 29.77 in 10.0 miles South 10.4 mph - N/A   Mostly Cloudy
7:43 AM 37.4°F 32.0°F 81% 29.73 in 10.0 miles SSE 9.2 mph - N/A   Mostly Cloudy
7:54 AM 39.2°F 32.0°F 75% 29.73 in 10.0 miles SSE 11.5 mph - N/A   Overcast
7:58 AM 38.7°F 33.1°F 80% 29.74 in 10.0 miles SSE 12.7 mph 17.3 mph 0.00 in   Mostly Cloudy
8:58 AM 39.9°F 33.6°F 78% 29.72 in 10.0 miles SSE 13.8 mph - N/A   Partly Cloudy
9:58 AM 42.6°F 34.2°F 72% 29.71 in 10.0 miles SSE 15.0 mph - N/A   Mostly Cloudy
10:58 AM 43.5°F 35.1°F 72% 29.71 in 10.0 miles SSE 12.7 mph 24.2 mph N/A   Mostly Cloudy
11:58 AM 44.6°F 35.6°F 71% 29.67 in 10.0 miles SSE 16.1 mph 28.8 mph N/A Rain Light Rain
12:19 PM 44.6°F 35.6°F 71% 29.64 in 10.0 miles South 15.0 mph 29.9 mph N/A   Scattered Clouds
12:46 PM 46.4°F 35.6°F 66% 29.62 in 10.0 miles SSE 21.9 mph 34.5 mph N/A Rain Light Rain
12:58 PM 45.9°F 35.8°F 68% 29.64 in 10.0 miles SSE 21.9 mph 31.1 mph 0.00 in Rain Light Rain
1:26 PM 44.6°F 37.4°F 76% 29.61 in 10.0 miles SSE 18.4 mph 26.5 mph N/A   Overcast
1:45 PM 46.4°F 35.6°F 66% 29.60 in 10.0 miles South 16.1 mph 28.8 mph N/A Rain Light Rain
1:58 PM 45.5°F 36.7°F 71% 29.62 in 10.0 miles South 18.4 mph 23.0 mph 0.01 in Rain Light Rain
2:12 PM 44.6°F 37.4°F 76% 29.60 in 10.0 miles South 17.3 mph 26.5 mph N/A   Overcast
2:16 PM 44.6°F 37.4°F 76% 29.61 in 10.0 miles South 17.3 mph 26.5 mph N/A Rain Light Rain
2:38 PM 44.6°F 37.4°F 76% 29.62 in 10.0 miles SSW 16.1 mph 24.2 mph N/A   Overcast
2:58 PM 44.6°F 39.2°F 81% 29.65 in 8.0 miles SSW 12.7 mph - 0.04 in Rain Light Rain
3:13 PM 42.8°F 41.0°F 93% 29.63 in 9.0 miles South 9.2 mph - N/A   Overcast
3:18 PM 42.8°F 41.0°F 93% 29.63 in 9.0 miles South 8.1 mph - N/A   Overcast
3:48 PM 42.8°F 41.0°F 93% 29.64 in 6.0 miles South 3.5 mph - N/A   Overcast
3:58 PM 42.4°F 41.0°F 95% 29.67 in 6.0 miles South 8.1 mph - 0.08 in   Overcast
4:28 PM 42.8°F 41.0°F 93% 29.65 in 6.0 miles SSW 11.5 mph 20.7 mph N/A   Overcast
4:33 PM 41.0°F 41.0°F 100% 29.66 in 6.0 miles South 12.7 mph - N/A   Overcast
4:43 PM 41.0°F 41.0°F 100% 29.66 in 6.0 miles South 12.7 mph - N/A   Overcast
4:58 PM 41.2°F 39.7°F 95% 29.68 in 6.0 miles South 15.0 mph 24.2 mph 0.18 in   Overcast
5:08 PM 41.0°F 39.2°F 93% 29.66 in 8.0 miles SSW 15.0 mph 29.9 mph N/A   Overcast
5:28 PM 41.0°F 41.0°F 100% 29.67 in 7.0 miles South 11.5 mph 20.7 mph N/A   Overcast
5:33 PM 41.0°F 41.0°F 100% 29.67 in 6.0 miles SSW 11.5 mph - N/A   Overcast
5:58 PM 41.4°F 40.1°F 95% 29.69 in 8.0 miles South 15.0 mph - 0.10 in   Overcast
6:18 PM 41.0°F 39.2°F 93% 29.67 in 8.0 miles South 15.0 mph - N/A   Overcast
6:58 PM 40.8°F 39.0°F 93% 29.68 in 10.0 miles SSE 18.4 mph 25.3 mph 0.13 in   Overcast
7:58 PM 40.8°F 39.2°F 94% 29.68 in 10.0 miles SSE 12.7 mph - 0.06 in   Overcast
8:58 PM 40.3°F 39.7°F 98% 29.65 in 9.0 miles SE 4.6 mph - 0.05 in Rain Light Rain
9:58 PM 41.5°F 39.7°F 93% 29.63 in 10.0 miles SSE 6.9 mph - 0.04 in Rain Light Rain
10:54 PM 41.0°F 41.0°F 100% 29.57 in 10.0 miles East 2.3 mph - N/A   Overcast
10:58 PM 41.0°F 40.5°F 98% 29.59 in 10.0 miles East 1.2 mph - 0.05 in   Overcast
11:08 PM 41.0°F 41.0°F 100% 29.56 in 10.0 miles ESE 2.3 mph - N/A Rain Light Rain
11:42 PM 41.0°F 41.0°F 100% 29.55 in 10.0 miles East 2.3 mph - N/A   Overcast
11:46 PM 41.0°F 41.0°F 100% 29.55 in 10.0 miles East 2.3 mph - N/A Rain Light Rain
11:58 PM 41.2°F 40.8°F 99% 29.55 in 10.0 miles East 3.5 mph - 0.01 in Rain Light Rain
Moon Phase
Dec. 19 Dec. 20 Dec. 28 Jan. 04 Jan. 11
Sunrise:07:52 AM (PST) Moon Rise:11:37 AM (PST)12/19
Sunset:04:22 PM (PST) Moon Set:No Moon Set/

Copyright © 2014 The Weather Underground, Inc.